This is the latest recevied weather packets stored in our database for station/object KC9GSD. If no packets are shown the sender has not sent any weather packets the latest 10 day(s).
| Time | Temp. | Humidity | Pressure | Rain* | Wind** | Luminosity | Snow |
|---|---|---|---|---|---|---|---|
| 1777777634 | 11.11° C | 67% | 1017.5 hPa | 0 mm | - | 0 W/m² | - |
| 1777777331 | 11.11° C | 66% | 1017.3 hPa | 0 mm | - | 0 W/m² | - |
| 1777777028 | 11.11° C | 68% | 1017.2 hPa | 0 mm | - | 0 W/m² | - |
| 1777776726 | 11.11° C | 70% | 1017.1 hPa | 0 mm | - | 0 W/m² | - |
| 1777776421 | 11.11° C | 70% | 1017.1 hPa | 0 mm | - | 0 W/m² | - |
| 1777776119 | 11.11° C | 68% | 1017.1 hPa | 0 mm | - | 0 W/m² | - |
| 1777775816 | 11.11° C | 67% | 1017.2 hPa | 0 mm | - | 0 W/m² | - |
| 1777775512 | 10.56° C | 70% | 1017.1 hPa | 0 mm | - | 0 W/m² | - |
| 1777775209 | 10.56° C | 67% | 1016.9 hPa | 0 mm | - | 0 W/m² | - |
| 1777774908 | 10.56° C | 67% | 1017.1 hPa | 0 mm | - | 0 W/m² | - |
| 1777774605 | 10.56° C | 67% | 1016.8 hPa | 0 mm | - | 0 W/m² | - |
| 1777774302 | 10.56° C | 70% | 1016.8 hPa | 0 mm | - | 0 W/m² | - |
| 1777773999 | 10.56° C | 68% | 1016.7 hPa | 0 mm | - | 0 W/m² | - |
| 1777773697 | 10.56° C | 67% | 1016.5 hPa | 0 mm | - | 0 W/m² | - |
| 1777773393 | 10.56° C | 68% | 1016.3 hPa | 0 mm | - | 0 W/m² | - |
| 1777773090 | 10.56° C | 68% | 1016.4 hPa | 0 mm | - | 0 W/m² | - |
| 1777772786 | 10.56° C | 68% | 1016.3 hPa | 0 mm | - | 0 W/m² | - |
| 1777772484 | 11.11° C | 69% | 1016.3 hPa | 0 mm | - | 0 W/m² | - |
| 1777772181 | 11.11° C | 70% | 1016 hPa | 0 mm | - | 0 W/m² | - |
| 1777771879 | 11.11° C | 68% | 1016.1 hPa | 0 mm | - | 0 W/m² | - |
| 1777771576 | 11.11° C | 68% | 1015.9 hPa | 0 mm | - | 0 W/m² | - |
| 1777771273 | 11.11° C | 64% | 1016 hPa | 0 mm | - | 0 W/m² | - |
| 1777770969 | 11.67° C | 66% | 1015.9 hPa | 0 mm | - | 0 W/m² | - |
| 1777770667 | 11.67° C | 69% | 1015.7 hPa | 0 mm | - | 0 W/m² | - |
| 1777770362 | 11.67° C | 65% | 1015.8 hPa | 0 mm | - | 0 W/m² | - |
* Rain latest hour (hover to see other rain measurements)
** Current wind speed in m/s (hover to see current wind gust speed)